Flight Track Log - Related Links

Times and Time Zones

All times are in EDT time to prevent confusion due to time zone crossing. See the SWA803 flight status page for this flight to view local times or setup timezone preferences in your user account.

Time Position Orientation Groundspeed Altitude Reporting Facility
EDT Latitude Longitude Course Direction KTS MPH feet Rate Location/Type
Thu 04:09:55 PM 38.6667 -121.6000 123° Southeast 158 182 900  Level Northern Cal TRACON
Thu 04:10:56 PM 38.6333 -121.5333 123° Southeast 244 281 2,500 2,286 Climbing Northern Cal TRACON
Thu 04:12:01 PM 38.6167 -121.4333 102° East 276 318 5,700 3,400 Climbing Northern Cal TRACON
Thu 04:12:56 PM 38.6000 -121.3500 104° East 293 337 9,300 3,542 Climbing Northern Cal TRACON
Thu 04:13:24 PM 38.6017 -121.3075 87° East 279 321 10,600 2,267 Climbing Oakland Center
Thu 04:14:26 PM 38.5842 -121.1906 101° East 333 383 12,700 2,244 Climbing Oakland Center
Thu 04:15:27 PM 38.5672 -121.0811 101° East 350 403 15,200 2,459 Climbing Oakland Center
Thu 04:16:28 PM 38.5475 -120.9500 101° East 367 422 17,700 1,854 Climbing Oakland Center
Thu 04:17:30 PM 38.5208 -120.7814 101° East 397 457 19,000 1,561 Climbing Oakland Center
Thu 04:18:31 PM 38.4969 -120.6339 102° East 417 480 20,900 2,195 Climbing Oakland Center
Thu 04:19:33 PM 38.4747 -120.4864 101° East 422 486 23,500 2,341 Climbing Oakland Center
Thu 04:20:34 PM 38.4500 -120.3411 102° East 421 484 25,700 2,000 Climbing Oakland Center
Thu 04:21:36 PM 38.4261 -120.1942 102° East 422 486 27,600 1,854 Climbing Oakland Center
Thu 04:22:37 PM 38.4025 -120.0461 101° East 425 489 29,500 1,869 Climbing Oakland Center
Thu 04:23:38 PM 38.3653 -119.9053 109° East 422 486 31,400 1,561 Climbing Oakland Center
Thu 04:24:40 PM 38.3156 -119.7669 115° Southeast 427 491 32,700 780 Climbing Oakland Center
Thu 04:25:41 PM 38.2686 -119.6278 113° Southeast 428 493 33,000 146 Climbing Oakland Center
Thu 04:26:43 PM 38.2122 -119.4628 113° Southeast 425 489 33,000  Level Oakland Center
Thu 04:27:44 PM 38.1706 -119.3436 114° Southeast 421 484 33,000  Level Oakland Center
Thu 04:28:46 PM 38.1167 -119.1900 114° Southeast 423 487 33,000  Level Oakland Center
Thu 04:29:47 PM 38.0747 -119.0647 113° Southeast 416 479 33,000  Level Oakland Center
Thu 04:30:49 PM 38.0261 -118.9297 115° Southeast 419 482 33,000  Level Oakland Center
Thu 04:31:50 PM 37.9439 -118.8231 134° Southeast 424 488 33,000  Level Oakland Center
Thu 04:32:52 PM 37.8425 -118.7003 136° Southeast 422 486 33,000  Level Oakland Center
Thu 04:33:53 PM 37.7556 -118.6028 138° Southeast 419 482 33,000  Level Oakland Center
Thu 04:34:55 PM 37.6703 -118.5042 138° Southeast 417 480 33,000  Level Oakland Center
Thu 04:35:56 PM 37.6031 -118.3836 125° Southeast 427 491 33,000  Level Oakland Center
Thu 04:36:58 PM 37.5222 -118.2814 135° Southeast 421 484 33,000  Level Oakland Center
Thu 04:37:59 PM 37.4772 -118.1511 113° Southeast 409 471 33,000  Level Oakland Center
Thu 04:39:00 PM 37.4431 -118.0136 107° East 412 474 33,000  Level Oakland Center
Thu 04:40:02 PM 37.4106 -117.8481 104° East 408 470 33,000  Level Oakland Center
Thu 04:41:03 PM 37.3814 -117.7122 105° East 404 465 33,000  Level Oakland Center
Thu 04:42:05 PM 37.3481 -117.5761 107° East 412 474 33,000  Level Oakland Center
Thu 04:43:06 PM 37.2756 -117.4628 129° Southeast 420 483 33,000  Level Oakland Center
Thu 04:44:08 PM 37.2025 -117.3519 130° Southeast 415 478 33,000  Level Oakland Center
Thu 04:45:09 PM 37.1308 -117.2431 130° Southeast 408 470 33,000  Level Oakland Center
Thu 04:46:10 PM 37.0575 -117.1322 130° Southeast 409 471 33,000  Level Oakland Center
Thu 04:47:12 PM 36.9833 -117.0211 130° Southeast 413 475 33,000  Level Oakland Center
Thu 04:48:13 PM 36.8847 -116.9417 147° Southeast 423 487 33,000 -98 Level Oakland Center
Thu 04:49:15 PM 36.7592 -116.8647 154° Southeast 422 486 32,800 -878 Descending Oakland Center
Thu 04:50:16 PM 36.6614 -116.8028 153° Southeast 408 470 31,200 -1,279 Descending Oakland Center
Thu 04:51:17 PM 36.5608 -116.7406 154° Southeast 403 464 30,200 -868 Descending Oakland Center
Thu 04:51:32 PM 36.5408 -116.7233 145° Southeast 406 467 30,100 -857 Descending Los Angeles Center
Thu 04:52:34 PM 36.4361 -116.6508 151° Southeast 408 470 29,100 -1,403 Descending Los Angeles Center
Thu 04:53:36 PM 36.3386 -116.5853 152° Southeast 399 459 27,200 -2,081 Descending Los Angeles Center
Thu 04:54:38 PM 36.2561 -116.5000 140° Southeast 390 449 24,800 -2,371 Descending Los Angeles Center
Thu 04:55:40 PM 36.1833 -116.3989 132° Southeast 391 450 22,300 -2,208 Descending Los Angeles Center
Thu 04:56:43 PM 36.1711 -116.2733 97° East 377 434 20,200 -1,968 Descending Los Angeles Center
Thu 04:57:45 PM 36.1839 -116.1303 84° East 357 411 18,200 -1,600 Descending Los Angeles Center
Thu 04:58:28 PM 36.1878 -116.0467 87° East 336 387 17,400 -1,065 Descending Los Angeles Center
Thu 04:58:47 PM 36.1925 -116.0108 81° East 326 375 17,100 -1,111 Descending Los Angeles Center
Thu 04:59:22 PM 36.1947 -115.9461 88° East 323 372 16,400 -968 Descending Los Angeles Center
Thu 04:59:49 PM 36.1997 -115.9022 82° East 317 365 16,100 -295 Descending Los Angeles Center
Thu 05:00:23 PM 36.1800 -115.8444 113° Southeast 308 354 16,100 -243 Level Los Angeles Center
Thu 05:01:03 PM 36.1686 -115.7981 107° East 298 343 15,800 -787 Descending Los Angeles Center
Thu 05:01:24 PM 36.1478 -115.7433 115° Southeast 307 353 15,300 -1,048 Descending Los Angeles Center
Thu 05:02:06 PM 36.1283 -115.6778 110° East 305 351 14,700 -787 Descending Los Angeles Center
Thu 05:02:25 PM 36.1164 -115.6469 116° Southeast 306 352 14,500 -968 Descending Los Angeles Center
Thu 05:03:08 PM 36.0972 -115.5808 110° East 305 351 13,700 -1,082 Descending Los Angeles Center
Thu 05:03:26 PM 36.0872 -115.5503 112° Southeast 301 346 13,400 -968 Descending Los Angeles Center
Thu 05:04:10 PM 36.0700 -115.4944 111° Southeast 298 343 12,700 -1,343 Descending Los Angeles Center
Thu 05:04:33 PM 36.0511 -115.4422 114° Southeast 294 338 11,900 -1,355 Descending Los Angeles Center
Thu 05:05:12 PM 36.0344 -115.3847 110° East 290 334 11,300 -900 Descending Los Angeles Center
Thu 05:05:33 PM 36.0272 -115.3517 105° East 273 314 11,000 -968 Descending Los Angeles Center
Thu 05:06:14 PM 36.0253 -115.2950 92° East 272 313 10,300 -1,180 Descending Los Angeles Center
Thu 05:06:34 PM 36.0222 -115.2578 96° East 265 305 9,800 -1,065 Descending Los Angeles Center
Thu 05:07:16 PM 36.0203 -115.2225 94° East 267 307 9,200 -1,574 Descending Los Angeles Center
Thu 05:07:35 PM 36.0153 -115.1669 96° East 268 308 8,200 -1,258 Descending Los Angeles Center
Thu 05:08:18 PM 36.0128 -115.1128 93° East 268 308 7,900 -295 Descending Los Angeles Center
Thu 05:08:36 PM 36.0092 -115.0786 97° East 233 268 7,900 -194 Level Los Angeles Center
Thu 05:09:20 PM 36.0069 -115.0364 94° East 237 273 7,700 -787 Descending Los Angeles Center
Thu 05:09:37 PM 36.0067 -115.0078 91° East 201 231 7,100 -1,258 Descending Los Angeles Center
Thu 05:10:22 PM 36.0050 -114.9572 92° East 207 238 6,400 -1,082 Descending Los Angeles Center
Thu 05:10:38 PM 36.0097 -114.9428 68° East 186 214 6,000 -1,143 Descending Los Angeles Center
Thu 05:11:25 PM 36.0447 -114.9361 North 197 227 5,200 -889 Descending Los Angeles Center
Thu 05:12:26 PM 36.0739 -114.9728 315° West 192 221 4,400 -876 Descending Los Angeles Center
Thu 05:13:42 PM 36.0744 -115.0517 271° West 174 200 3,200 -864 Descending Los Angeles Center
Thu 05:14:31 PM 36.0739 -115.0900 269° West 175 201 2,600 -831 Descending Los Angeles Center
Thu 05:14:47 PM 36.0728 -115.1133 267° West 154 177 2,300 -581 Descending Los Angeles Center
Thu 05:15:33 PM 36.0742 -115.1458 273° West 165 190 2,000 -391 Descending Los Angeles Center
Thu 05:17:00 PM 36.0667 -115.1500 270° West  Level FlightAware Approximate

Login

Don't have an account? Register now (free) for customized features, flight alerts, and more!